KB1JDX Weather Reports


time (UTC)temp
F
wind
direction
speed
knots
gust
knots
rain 1hr
in
rain 24hr
in
rain mn
in
humidity
%
barometer
mb
20260504044033 35 291 0.0 0.0 0.00 0.00 0.00 53 1011.8
20260504042033 36 291 0.0 0.0 0.00 0.00 0.00 55 1011.7
20260504041926 36 291 0.0 0.0 0.00 0.00 0.00 55 1011.5
20260504040033 36 291 0.0 0.0 0.00 0.00 0.00 57 1011.4
20260504034032 37 291 0.0 0.0 0.00 0.00 0.00 59 1011.2
20260504032032 37 291 0.0 0.0 0.00 0.00 0.00 63 1011.3
20260504031925 37 291 0.0 0.0 0.00 0.00 0.00 63 1011.3
20260504030032 38 291 0.0 0.0 0.00 0.00 0.00 66 1011.1
20260504024033 38 291 0.0 0.0 0.00 0.00 0.00 67 1011.0
20260504022032 39 291 0.0 0.0 0.00 0.00 0.00 69 1010.8
20260504021926 39 291 0.0 0.0 0.00 0.00 0.00 69 1010.8
20260504020033 40 291 0.0 0.0 0.00 0.00 0.00 70 1010.7
20260504014033 41 291 0.0 0.0 0.00 0.00 0.00 69 1010.6
20260504011926 42 291 0.0 0.0 0.00 0.00 0.00 66 1010.4
20260504010033 44 291 0.0 0.0 0.00 0.00 0.00 63 1010.0
20260504004034 45 291 0.0 0.0 0.00 0.00 0.00 57 1009.6
20260504002033 47 291 0.0 0.0 0.00 0.00 0.00 53 1009.4
20260504001926 48 291 0.0 0.0 0.00 0.00 0.00 53 1009.4
20260504000033 50 291 0.0 7.0 0.00 0.00 0.00 49 1009.3
20260503234034 51 291 0.0 7.0 0.00 0.00 0.00 45 1009.1
20260503232032 52 291 0.0 7.0 0.00 0.00 0.00 42 1009.1
20260503231926 52 291 0.0 7.0 0.00 0.00 0.00 42 1009.1
20260503230034 52 355 0.0 8.7 0.00 0.00 0.00 42 1008.8
20260503224032 52 317 0.0 8.7 0.00 0.00 0.00 43 1008.7
20260503222034 52 300 4.3 8.7 0.00 0.00 0.00 42 1008.5
20260503221926 52 308 7.0 8.7 0.00 0.00 0.00 42 1008.7
20260503220034 53 302 4.3 12.2 0.00 0.00 0.00 41 1008.4
20260503214034 53 291 1.7 12.2 0.00 0.00 0.00 41 1008.1
20260503212033 54 284 5.2 12.2 0.00 0.01 0.00 41 1008.0
20260503211926 54 284 5.2 12.2 0.00 0.01 0.00 41 1008.0
20260503204034 53 303 0.0 10.4 0.00 0.01 0.00 43 1007.5
20260503202034 53 313 7.0 10.4 0.00 0.05 0.00 41 1007.2
20260503201926 53 297 7.8 10.4 0.00 0.05 0.00 42 1007.3
20260503200034 54 307 0.9 11.3 0.00 0.05 0.00 40 1007.1
20260503194034 53 306 0.0 11.3 0.00 0.05 0.00 44 1007.1
20260503192034 53 315 0.0 11.3 0.00 0.05 0.00 47 1007.1
20260503191926 53 279 0.0 11.3 0.00 0.05 0.00 46 1007.0
20260503190034 53 294 4.3 10.4 0.00 0.05 0.00 43 1007.0
20260503184034 52 303 4.3 10.4 0.00 0.05 0.00 44 1007.1
20260503182034 52 286 3.5 10.4 0.00 0.05 0.00 46 1007.0
20260503181926 52 294 7.8 10.4 0.00 0.05 0.00 46 1007.1
20260503180034 53 289 5.2 9.6 0.00 0.05 0.00 47 1006.9
20260503174032 54 310 0.0 9.6 0.00 0.05 0.00 46 1006.8
20260503172032 53 306 4.3 9.6 0.00 0.06 0.00 48 1006.7
20260503171926 53 306 6.1 9.6 0.00 0.06 0.00 48 1006.8
20260503072032 43 300 0.0 0.0 0.00 0.09 0.00 68 1008.5
20260503071926 43 300 0.0 0.0 0.00 0.09 0.00 68 1008.5